Location: Santiago
(33.4378°S, 70.6505°W)
Time: 22:46:28
(UTC+00:00)

ISS - Pass Details

Date: 13 April 2026
Orbit: 416 x 425 km, 51.6° (Epoch: 18 April)

Event Time Altitude Azimuth Distance (km) Brightness Sun altitude
Rises 23:30:25 0° 282° (WNW) 2,377 1.8 -15.0°
Reaches altitude 10° 23:32:53 10° 265° (W) 1,516 0.4 -15.5°
Maximum altitude 23:35:30 20° 214° (SW) 1,037 -1.4 -16.0°
Drops below altitude 10° 23:38:09 10° 163° (SSE) 1,523 -1.1 -16.6°
Enters shadow 23:38:16 - 162° (SSE) 1,562 -1.1 -16.6°
